SCP
0 0 0 0 0 0 0 0 0 0 0 0 0 0 0 0 0 0 0 0 0 0 0 0 0 0 0 0 0 0 0 0 0 0 0 0 0 0 0 0 0 0 0
0 0 0 0 0 0 0 0 0 0 0 0 0 0 0 0 0 0 0 0 0 0 0 0 0 0 0 0 0 0 0 0 0 0 0 0 0 0 0 0 0 0 0
0 0 0 0 0 0 0 0 0 0 0 0 0 0 0 0 0 0 0 0 0 0 0 0 0 0 0 0 0 0 0 0 0 0 0 0 0 0 0 0 0 0 0
0 0 0 0 0 0 0 0 0 0 0 0 0 0 0 0 0 0 0 0 0 0 0 0 0 0 0 0 0 0 0 0 0 0 0 0 0 0 0 0 0 0 0
0 0 0 0 0 0 0 0 0 0 0 0 0 0 0 0 0 0 0 0 0 0 0 0 0 0 0 0 0 0 0 0 0 0 0 0 0 0 0 0 0 0 0
0 0 0 0 0 0 0 0 0 0 0 0 0 0 0 0 0 0 0 0 0 0 0 0 0 0 0 0 0 0 0 0 0 0 0 0 0 0 0 0 0 0 0
0 0 0 0 0 0 0 0 0 0 0 0 0 0 0 0 0 0 0 0 0 0 0 0 0 0 0 0 0 0 0 0 0 0 0 0 0 0 0 0 0 0 0
0 0 0 0 0 0 0 0 0 0 0 0 0 0 0 0 0 0 0 0 0 0 0 0 0 0 0 0 0 0 0 0 -0 -0 0 0 0 0 0 0 0 0 0
0 0 0 0 0 0 0 0 0 0 0 0 0 0 0 0 0 0 0 0 0 0 0 0 0 0 0 0 0 0 0 0 0 0 0 0 0 0 0 0 0 0 0
0 0 0 0 0 0 0 0 0 0 0 0 0 0 0 0 0 0 0 0 0 0 0 0 0 0 0 0 0 0 0 0 0 0 0 0 0 0 0 0 0 0 0
0 0 0 0 0 0 0 0 0 0 0 0 0 0 0 0 0 0 0 0 0 0 0 0 0 0 0 0 0 0 0 0 0 -0 -0 0 0 0 0 -0 -0 -0 -0
0 0 0 0 0 0 0 0 0 0 0 0 0 0 0 0 0 0 0 0 0 0 0 0 0 0 0 0 0 0 0 0 0 0 0 0 0 0 0 -0 -0 0 0
0 0 0 0 0 0 0 0 0 0 0 0 0 0 0 0 0 0 0 0 0 0 0 0 0 0 0 0 0 0 0 0 0 0 0 0 0 0 0 0 0 0 0
0 0 0 0 0 0 0 0 0 0 0 0 0 0 0 0 0 0 0 0 0 0 0 0 0 0 0 0 0 0 0 0 0 0 0 0 0 0 0 0 0 0 0
0 0 0 0 0 0 0 -0 -0 -0 0 0 0 0 0 0 0 0 0 0 0 0 0 0 0 0 0 0 0 0 0 0 0 0 0 0 0 0 0 0 0 0 0
0 0 0 0 0 0 0 0 0 0 0 0 0 0 0 0 0 0 0 0 0 0 0 0 0 0 0 0 0 0 0 0 0 0 0 0 0 0 0 0 0 0 0
0 0 0 0 0 0 0 0 0 0 0 0 0 0 0 0 0 0 0 0 0 0 0 0 0 0 0 0 0 0 0 0 0 0 0 0 0 0 0 0 0 0 0
0 0 0 0 0 0 0 0 0 0 0 0 0 0 0 0 0 0 0 0 0 0 0 0 0 0 0 0 0 0 0 0 0 0 0 0 0 0 0 0 0 0 0
0 0 0 0 0 0 0 0 0 0 0 0 0 0 0 0 0 0 0 0 0 0 0 0 0 0 0 0 0 0 0 0 0 0 0 0 0 0 0 0 0 0 0
0 0 0 0 0 0 0 0 0 0 0 0 0 0 0 0 0 0 0 0 0 0 0 0 0 0 0 0 0 0 0 0 0 0 0 0 0 0 0 0 0 0 0
0 0 0 0 0 0 0 0 0 0 0 0 0 0 0 0 0 0 0 0 0 0 0 0 0 0 0 0 0 0 0 0 0 0 0 0 0 0 0 0 0 0 0
0 0 0 0 0 0 0 0 0 0 0 0 0 0 0 0 0 0 0 0 0 0 0 0 0 0 0 0 0 -0 -0 -0 0 0 0 0 0 0 0 0 0 0 0
0 0 0 0 0 0 0 0 0 0 0 0 0 0 0 0 0 0 0 0 0 0 0 0 0 0 0 0 0 0 0 0 0 0 0 0 0 0 0 0 0 0 0
0 0 0 0 0 0 0 0 0 0 0 0 0 0 0 0 0 0 0 0 0 0 0 0 0 0 0 0 0 0 0 0 0 0 0 0 0 0 0 0 0 0 0
0 0 0 0 0 0 0 0 0 0 0 0 0 0 0 0 0 0 0 0 0 0 0 0 0 0 0 0 0 0 0 0 0 0 0 0 0 0 0 0 0 0 0
0 0 0 0 0 0 0 0 0 0 0 0 0 0 0 0 0 0 0 0 0 0 0 0 0 0 0 0 0 0 0 0 0 0 0 0 0 0 0 0 0 0 0
Wind_Speed
4 4 4 3 3 4 4 3 3 3 4 4 4 4 4 5 4 4 4 4 4 4 4 3 3 2 1 1 1 2 2 3 4 3 2 3 3 4 4 3 3 3 3
3 3 3 3 4 4 4 3 3 4 4 4 4 4 5 5 4 4 4 4 4 4 4 4 4 3 3 2 2 2 2 3 5 6 3 3 3 4 4 3 3 3 2
3 3 3 3 3 3 3 3 3 4 4 5 4 5 5 5 5 5 4 4 4 4 4 4 3 3 3 2 2 2 2 3 4 6 4 3 3 3 4 3 3 1 2
3 3 3 2 2 2 3 3 4 4 4 4 4 4 4 5 5 5 4 4 4 4 4 4 3 3 2 2 2 3 4 5 5 5 5 4 3 3 3 3 2 1 0
3 2 2 2 2 3 4 4 4 4 4 4 4 5 5 4 5 4 4 4 4 4 5 4 4 5 5 3 2 3 4 4 5 5 5 4 3 3 2 2 2 1 1
3 1 1 2 2 2 3 3 4 4 4 5 5 5 6 5 7 7 5 4 4 4 4 4 4 5 6 6 6 6 6 6 5 5 4 5 4 3 3 3 2 2 1
2 2 2 3 3 2 3 3 4 4 4 4 4 5 5 6 8 8 7 4 4 4 4 4 4 5 5 4 6 8 7 7 6 6 6 5 4 4 4 3 2 2 2
2 2 2 2 2 2 3 3 3 3 3 3 3 4 4 6 8 8 7 5 5 5 5 4 4 4 5 5 6 7 6 5 4 4 5 4 4 3 4 4 3 2 1
2 2 2 2 3 2 2 2 2 2 2 2 2 3 4 5 7 7 6 4 4 5 5 5 5 5 7 8 7 7 7 5 7 8 6 5 5 4 4 3 3 3 1
2 2 2 2 2 2 2 1 1 1 1 2 3 3 3 4 6 6 5 3 4 4 4 5 7 7 7 7 6 6 6 3 4 5 5 4 3 2 3 3 3 3 2
2 2 2 2 2 1 2 1 1 2 2 3 3 3 4 4 6 6 6 3 2 3 3 3 4 7 8 8 6 4 3 3 3 3 3 2 2 1 1 1 3 4 3
3 3 2 2 1 2 2 2 2 2 2 2 3 3 4 4 6 6 7 6 4 3 2 2 3 6 6 6 4 4 5 5 3 3 2 1 1 1 1 1 2 2 3
3 2 2 3 3 2 2 2 2 2 2 2 2 2 3 3 5 8 9 9 8 4 2 3 5 6 6 4 4 5 4 3 3 3 1 0 1 1 1 1 2 1 2
3 2 2 2 2 3 3 2 2 2 2 2 2 1 1 2 3 4 4 4 6 5 4 5 6 6 5 4 3 3 2 1 2 2 1 1 1 1 1 0 0 1 2
2 1 1 1 1 2 2 2 1 0 1 2 2 2 2 1 2 2 2 2 2 3 3 3 4 3 4 3 3 2 1 1 1 0 0 0 1 1 1 1 0 0 0
2 1 1 1 1 1 1 2 3 1 1 1 3 3 1 1 1 1 3 3 3 3 3 3 2 2 1 1 1 1 1 0 0 0 0 0 1 1 1 1 0 1 1
3 2 1 1 1 1 1 1 1 3 3 2 1 1 2 2 2 2 3 5 4 2 2 1 2 2 1 1 1 1 1 1 1 1 1 1 1 1 1 1 1 1 2
3 2 2 2 2 2 2 2 2 2 1 3 3 4 4 4 4 4 4 4 3 2 1 2 2 2 2 1 1 1 1 1 1 1 1 1 1 1 1 2 2 2 2
2 2 2 2 2 2 2 2 2 3 3 3 2 3 5 5 5 6 2 1 2 3 2 2 2 2 2 2 2 2 2 2 2 1 1 2 1 1 1 2 2 3 2
2 4 3 2 2 2 2 2 3 3 3 3 4 4 2 1 2 3 2 2 3 3 3 3 3 3 3 2 2 2 2 2 2 2 2 2 2 2 2 3 3 3 3
2 3 4 2 2 3 3 3 3 3 4 4 4 5 6 4 4 4 3 3 4 4 4 4 3 3 3 2 2 3 3 2 3 2 2 2 2 2 2 3 3 3 3
2 3 3 3 3 3 3 3 3 4 4 5 4 4 7 4 4 4 4 4 5 4 4 4 3 3 3 3 4 3 3 3 3 3 3 3 2 2 2 2 3 3 3
3 3 3 3 4 5 4 3 4 4 5 5 5 4 3 4 5 5 5 5 4 4 4 3 4 3 3 3 4 4 4 5 5 4 4 3 3 3 2 3 4 4 4
3 3 4 4 4 4 4 5 5 5 5 5 4 4 5 5 5 6 6 5 4 4 4 4 4 6 6 4 3 4 4 5 4 4 6 4 4 3 3 3 4 5 5
3 3 4 4 4 5 5 5 5 5 5 4 4 4 4 5 5 5 5 5 5 5 6 5 4 5 7 8 6 5 6 7 6 4 4 4 5 5 4 5 5 5 6
4 4 4 4 4 5 5 5 5 5 5 5 4 4 5 5 5 5 5 5 5 5 5 5 6 7 7 7 8 8 8 8 8 7 4 3 4 5 5 5 6 6 7
Wind_Direction
70 64 60 49 44 43 40 32 31 26 24 27 25 26 23 19 15 22 20 21 25 18 17 28 24 27 49 38 71 104 110 118 127 111 95 107 104 111 103 91 93 95 116
80 69 63 56 50 46 38 29 34 33 27 30 32 31 29 23 18 29 29 26 31 25 17 24 19 29 40 35 57 81 102 113 128 127 117 106 98 115 109 109 113 126 125
80 75 64 57 55 42 29 27 34 38 32 31 37 34 29 24 23 27 36 33 33 28 22 26 17 33 38 38 56 79 101 104 107 125 124 109 102 117 110 102 107 88 148
82 75 62 51 46 36 35 36 37 41 42 38 37 33 31 30 28 27 36 39 36 31 28 28 24 36 45 60 75 92 106 107 109 117 118 112 107 113 112 114 108 68 103
88 73 51 48 46 41 41 40 40 41 45 44 42 33 26 30 25 27 30 41 39 34 28 25 30 47 50 60 90 108 116 115 116 118 121 120 125 129 131 135 133 101 27
95 85 56 55 53 48 48 45 48 44 42 46 45 41 35 30 27 35 36 40 39 40 32 21 26 33 40 56 80 97 115 126 127 124 127 138 143 145 133 136 133 126 217
90 72 66 64 63 47 55 55 48 44 47 46 42 41 33 20 30 36 45 52 46 42 38 30 31 32 37 58 76 80 80 96 119 136 140 149 154 162 147 139 147 161 201
86 72 74 83 67 53 60 54 41 41 45 40 40 36 31 19 30 39 48 52 51 45 41 40 48 34 41 70 80 73 69 68 92 110 130 141 149 152 155 158 163 138 42
87 85 76 82 77 64 57 45 35 49 39 30 35 39 33 10 22 43 55 50 49 40 36 39 46 50 51 70 79 78 69 60 71 91 104 114 125 133 139 114 104 100 73
104 100 87 85 83 72 55 35 30 58 49 42 41 32 36 20 21 44 58 60 52 37 30 30 41 54 56 66 80 87 81 69 75 79 75 73 82 96 121 134 139 126 126
115 98 85 79 82 83 50 29 44 55 49 39 34 20 25 23 24 41 57 68 69 55 37 21 21 42 54 60 73 88 100 99 86 86 79 65 49 43 55 148 164 152 153
102 89 79 69 54 71 56 32 38 55 54 42 37 24 13 11 25 37 55 68 77 75 45 11 12 31 40 46 60 71 75 82 86 85 82 67 39 341 301 274 217 201 197
100 83 71 61 45 48 59 51 43 50 63 55 64 42 8 5 15 35 47 53 56 62 30 13 14 23 30 34 39 53 64 75 88 89 95 228 250 259 304 338 338 328 304
119 100 78 66 47 35 42 57 74 69 76 80 94 87 26 12 7 10 21 30 33 31 15 4 13 19 30 28 20 28 46 93 121 133 181 274 329 357 347 344 349 354 352
137 131 115 102 93 59 46 47 86 102 185 154 161 158 135 57 319 4 52 30 15 2 1 16 18 10 10 7 6 3 14 46 80 124 118 2 352 354 322 320 76 70 37
142 152 165 157 147 135 95 17 14 26 41 113 150 151 163 193 231 11 21 10 356 4 39 21 357 347 338 331 331 344 359 333 243 184 158 205 251 275 301 317 293 189 236
174 192 193 186 191 201 199 184 295 336 347 336 269 203 206 222 263 316 341 343 340 9 38 332 312 299 287 270 255 235 251 247 206 179 185 212 226 250 266 285 286 272 264
187 204 200 208 209 209 210 211 208 218 285 302 287 257 252 255 271 290 325 357 350 360 301 282 286 279 261 242 233 232 244 263 248 228 230 237 233 242 267 273 269 254 259
186 213 219 218 218 218 221 220 222 226 238 257 280 285 264 269 282 280 273 223 269 289 286 275 263 255 244 228 226 225 224 232 234 227 243 247 244 236 263 268 266 268 261
211 235 229 224 231 228 225 226 237 240 243 246 249 249 244 231 272 274 242 231 239 256 262 262 255 238 232 225 225 224 223 231 236 232 240 245 241 228 246 263 264 263 258
217 244 249 252 242 232 228 227 230 235 242 245 248 244 210 206 235 247 249 243 238 243 244 242 242 239 234 226 219 217 215 223 224 223 229 234 232 239 250 254 259 262 264
218 232 235 242 246 242 241 240 239 241 244 246 252 258 230 222 236 244 249 252 245 235 227 222 230 232 224 215 208 203 207 218 223 221 223 231 235 241 250 260 268 273 273
219 235 245 252 249 248 248 248 245 245 247 246 242 236 226 226 235 240 247 251 242 234 229 216 218 234 236 223 210 196 199 214 218 209 211 228 239 244 245 254 266 274 277
229 237 239 247 250 249 251 256 254 249 246 243 234 224 223 224 229 236 241 242 237 235 229 219 218 223 225 225 221 214 215 218 214 212 209 214 227 238 241 251 261 265 269
235 242 244 245 246 249 251 255 256 252 247 241 232 228 229 230 234 240 238 235 234 234 235 228 226 228 228 225 222 222 221 221 221 217 213 213 229 238 243 251 257 264 267
238 246 247 248 248 249 250 251 251 248 242 240 236 233 233 232 234 237 235 233 234 237 240 237 234 231 229 226 225 223 224 227 229 228 220 221 232 244 247 252 261 264 269